START_TIME,STEP,MOV.,P11,t_acc.,P23,t_acc.,P27,t_acc.,A4,t_acc.
1981-08-27 18:00:23.870 ,1,0,0.,4.8,0.,4.8,0.,4.8,0.,4.8
1981-08-27 18:00:28.670 ,1,0,0.,4.8,0.,4.8,0.,4.8,0.,4.8
1981-08-27 18:00:33.470 ,1,0,1.,4.8,0.,4.8,1.,4.8,0.,4.8
1981-08-27 18:00:38.270 ,1,0,0.,4.8,0.,4.8,0.,4.8,0.,4.8
1981-08-27 18:00:43.070 ,1,0,0.,4.8,0.,4.8,0.,4.8,0.,4.8
1981-08-27 18:00:47.870 ,2,0,0.,4.8,0.,4.8,0.,4.8,0.,4.8
1981-08-27 18:00:52.670 ,2,0,0.,4.8,0.,4.8,0.,4.8,0.,4.8
1981-08-27 18:00:57.470 ,2,0,0.,4.8,0.,4.8,1.,4.8,0.,4.8
1981-08-27 18:01:02.270 ,2,0,1.,4.8,0.,4.8,0.,4.8,0.,4.8
1981-08-27 18:01:07.070 ,2,0,0.,4.8,0.,4.8,0.,4.8,0.,4.8
1981-08-27 18:01:11.870 ,3,0,0.,4.8,0.,4.8,0.,4.8,0.,4.8
1981-08-27 18:01:16.670 ,3,0,0.,4.8,0.,4.8,0.,4.8,0.,4.8
1981-08-27 18:01:21.470 ,3,0,0.,4.8,0.,4.8,0.,4.8,0.,4.8
1981-08-27 18:01:26.270 ,3,0,1.,4.8,0.,4.8,0.,4.8,0.,4.8
1981-08-27 18:01:31.070 ,3,0,0.,4.8,0.,4.8,0.,4.8,0.,4.8
1981-08-27 18:01:35.870 ,4,0,0.,4.8,0.,4.8,0.,4.8,0.,4.8
1981-08-27 18:01:40.670 ,4,0,0.,4.8,0.,4.8,0.,4.8,0.,4.8
1981-08-27 18:01:45.470 ,4,0,0.,4.8,0.,4.8,0.,4.8,0.,4.8
1981-08-27 18:01:50.270 ,4,0,0.,4.8,0.,4.8,0.,4.8,0.,4.8
1981-08-27 18:01:55.070 ,4,0,0.,4.8,0.,4.8,0.,4.8,0.,4.8
1981-08-27 18:01:59.870 ,5,0,0.,4.8,0.,4.8,1.,4.8,0.,4.8
1981-08-27 18:02:04.670 ,5,0,0.,4.8,0.,4.8,0.,4.8,0.,4.8
1981-08-27 18:02:09.470 ,5,0,0.,4.8,0.,4.8,0.,4.8,0.,4.8
1981-08-27 18:02:14.270 ,5,0,0.,4.8,0.,4.8,0.,4.8,0.,4.8
1981-08-27 18:02:19.070 ,5,0,1.,4.8,0.,4.8,0.,4.8,0.,4.8
1981-08-27 18:02:23.870 ,6,0,0.,4.8,0.,4.8,0.,4.8,0.,4.8
1981-08-27 18:02:28.670 ,6,0,0.,4.8,0.,4.8,0.,4.8,0.,4.8
1981-08-27 18:02:33.470 ,6,0,1.,4.8,0.,4.8,0.,4.8,0.,4.8
1981-08-27 18:02:38.270 ,6,0,0.,4.8,0.,4.8,1.,4.8,0.,4.8
1981-08-27 18:02:43.070 ,6,0,2.,4.8,0.,4.8,1.,4.8,0.,4.8
1981-08-27 18:02:47.870 ,7,0,0.,4.8,0.,4.8,0.,4.8,0.,4.8
1981-08-27 18:02:52.670 ,7,0,0.,4.8,0.,4.8,0.,4.8,0.,4.8
1981-08-27 18:02:57.470 ,7,0,1.,4.8,0.,4.8,0.,4.8,0.,4.8
1981-08-27 18:03:02.270 ,7,0,3.,4.8,0.,4.8,1.,4.8,0.,4.8
1981-08-27 18:03:07.070 ,7,0,0.,4.8,0.,4.8,0.,4.8,0.,4.8
1981-08-27 18:03:11.870 ,7,0,0.,4.8,0.,4.8,0.,4.8,0.,4.8
1981-08-27 18:03:16.670 ,7,0,0.,4.8,0.,4.8,0.,4.8,0.,4.8
1981-08-27 18:03:21.470 ,7,0,0.,4.8,0.,4.8,0.,4.8,0.,4.8
1981-08-27 18:03:26.270 ,7,0,0.,4.8,0.,4.8,0.,4.8,0.,4.8
1981-08-27 18:03:31.070 ,7,0,2.,4.8,0.,4.8,1.,4.8,0.,4.8
1981-08-27 18:03:35.870 ,7,0,0.,4.8,0.,4.8,0.,4.8,0.,4.8
1981-08-27 18:03:40.670 ,7,0,1.,4.8,0.,4.8,0.,4.8,0.,4.8
1981-08-27 18:03:45.470 ,7,0,1.,4.8,0.,4.8,0.,4.8,0.,4.8
1981-08-27 18:03:50.270 ,7,0,0.,4.8,0.,4.8,0.,4.8,0.,4.8
1981-08-27 18:03:55.070 ,7,0,1.,4.8,0.,4.8,0.,4.8,0.,4.8
1981-08-27 18:03:59.870 ,6,0,0.,4.8,0.,4.8,0.,4.8,0.,4.8
1981-08-27 18:04:04.670 ,6,0,0.,4.8,0.,4.8,0.,4.8,0.,4.8
1981-08-27 18:04:09.470 ,6,0,0.,4.8,1.,4.8,0.,4.8,0.,4.8
1981-08-27 18:04:14.270 ,6,0,0.,4.8,0.,4.8,0.,4.8,0.,4.8
1981-08-27 18:04:19.070 ,6,0,0.,4.8,0.,4.8,0.,4.8,0.,4.8
1981-08-27 18:04:23.870 ,6,0,0.,4.8,0.,4.8,0.,4.8,0.,4.8
1981-08-27 18:04:28.670 ,6,0,0.,4.8,0.,4.8,0.,4.8,0.,4.8
1981-08-27 18:04:33.470 ,6,0,0.,4.8,0.,4.8,0.,4.8,0.,4.8
1981-08-27 18:04:38.270 ,6,0,0.,4.8,0.,4.8,0.,4.8,0.,4.8
1981-08-27 18:04:43.070 ,6,0,0.,4.8,0.,4.8,0.,4.8,0.,4.8
1981-08-27 18:04:47.870 ,5,0,0.,4.8,0.,4.8,0.,4.8,0.,4.8
1981-08-27 18:04:52.670 ,5,0,2.,4.8,0.,4.8,0.,4.8,0.,4.8
1981-08-27 18:04:57.470 ,5,0,1.,4.8,0.,4.8,0.,4.8,0.,4.8
1981-08-27 18:05:02.270 ,5,0,0.,4.8,0.,4.8,0.,4.8,0.,4.8
1981-08-27 18:05:07.070 ,5,0,0.,4.8,0.,4.8,0.,4.8,0.,4.8
1981-08-27 18:05:11.870 ,5,0,1.,4.8,0.,4.8,0.,4.8,0.,4.8
1981-08-27 18:05:16.670 ,5,0,1.,4.8,0.,4.8,0.,4.8,0.,4.8
1981-08-27 18:05:21.470 ,5,0,0.,4.8,0.,4.8,0.,4.8,0.,4.8
1981-08-27 18:05:26.270 ,5,0,2.,4.8,0.,4.8,0.,4.8,0.,4.8
1981-08-27 18:05:31.070 ,5,0,0.,4.8,0.,4.8,0.,4.8,0.,4.8
1981-08-27 18:05:35.870 ,4,0,0.,4.8,0.,4.8,0.,4.8,0.,4.8
1981-08-27 18:05:40.670 ,4,0,1.,4.8,0.,4.8,0.,4.8,0.,4.8
1981-08-27 18:05:45.470 ,4,0,1.,4.8,0.,4.8,0.,4.8,0.,4.8
1981-08-27 18:05:50.270 ,4,0,0.,4.8,0.,4.8,0.,4.8,0.,4.8
1981-08-27 18:05:55.070 ,4,0,0.,4.8,0.,4.8,0.,4.8,0.,4.8
1981-08-27 18:05:59.870 ,4,0,0.,4.8,0.,4.8,0.,4.8,0.,4.8
1981-08-27 18:06:04.670 ,4,0,0.,4.8,0.,4.8,0.,4.8,0.,4.8
1981-08-27 18:06:09.470 ,4,0,1.,4.8,0.,4.8,0.,4.8,0.,4.8
1981-08-27 18:06:14.270 ,4,0,0.,4.8,0.,4.8,0.,4.8,0.,4.8
1981-08-27 18:06:19.070 ,4,0,0.,4.8,0.,4.8,0.,4.8,0.,4.8
1981-08-27 18:06:23.870 ,3,0,1.,4.8,0.,4.8,0.,4.8,0.,4.8
1981-08-27 18:06:28.670 ,3,0,0.,4.8,0.,4.8,0.,4.8,0.,4.8
1981-08-27 18:06:33.470 ,3,0,0.,4.8,0.,4.8,1.,4.8,0.,4.8
1981-08-27 18:06:38.270 ,3,0,2.,4.8,0.,4.8,0.,4.8,0.,4.8
1981-08-27 18:06:43.070 ,3,0,0.,4.8,0.,4.8,0.,4.8,0.,4.8
1981-08-27 18:06:47.870 ,3,0,1.,4.8,0.,4.8,0.,4.8,0.,4.8
1981-08-27 18:06:52.670 ,3,0,1.,4.8,0.,4.8,0.,4.8,0.,4.8
1981-08-27 18:06:57.470 ,3,0,1.,4.8,0.,4.8,0.,4.8,0.,4.8
1981-08-27 18:07:02.270 ,3,0,0.,4.8,0.,4.8,1.,4.8,0.,4.8
1981-08-27 18:07:07.070 ,3,0,2.,4.8,0.,4.8,0.,4.8,0.,4.8
1981-08-27 18:07:11.870 ,2,0,0.,4.8,0.,4.8,0.,4.8,0.,4.8
1981-08-27 18:07:16.670 ,2,0,0.,4.8,0.,4.8,0.,4.8,0.,4.8
1981-08-27 18:07:21.470 ,2,0,0.,4.8,0.,4.8,0.,4.8,0.,4.8
1981-08-27 18:07:26.270 ,2,0,1.,4.8,0.,4.8,0.,4.8,0.,4.8
1981-08-27 18:07:31.070 ,2,0,1.,4.8,0.,4.8,0.,4.8,0.,4.8
1981-08-27 18:07:35.870 ,2,0,0.,4.8,0.,4.8,0.,4.8,0.,4.8
1981-08-27 18:07:40.670 ,2,0,1.,4.8,0.,4.8,0.,4.8,0.,4.8
1981-08-27 18:07:45.470 ,2,0,0.,4.8,0.,4.8,0.,4.8,0.,4.8
1981-08-27 18:07:50.270 ,2,0,0.,4.8,0.,4.8,0.,4.8,0.,4.8
1981-08-27 18:07:55.070 ,2,0,2.,4.8,0.,4.8,0.,4.8,0.,4.8
1981-08-27 18:07:59.870 ,1,0,1.,4.8,0.,4.8,0.,4.8,0.,4.8
1981-08-27 18:08:04.670 ,1,0,0.,4.8,0.,4.8,0.,4.8,0.,4.8
1981-08-27 18:08:09.470 ,1,0,0.,4.8,0.,4.8,0.,4.8,0.,4.8
1981-08-27 18:08:14.270 ,1,0,0.,4.8,0.,4.8,0.,4.8,0.,4.8
1981-08-27 18:08:19.070 ,1,0,0.,4.8,0.,4.8,0.,4.8,0.,4.8
1981-08-27 18:08:23.870 ,1,0,0.,4.8,0.,4.8,0.,4.8,0.,4.8
1981-08-27 18:08:28.670 ,1,0,1.,4.8,0.,4.8,0.,4.8,0.,4.8
1981-08-27 18:08:33.470 ,1,0,0.,4.8,0.,4.8,0.,4.8,0.,4.8
1981-08-27 18:08:38.270 ,1,0,1.,4.8,0.,4.8,0.,4.8,0.,4.8
1981-08-27 18:08:43.070 ,1,0,0.,4.8,0.,4.8,0.,4.8,0.,4.8
1981-08-27 18:08:47.870 ,0,0,0.,4.8,0.,4.8,0.,4.8,0.,4.8
1981-08-27 18:08:52.670 ,0,0,0.,4.8,0.,4.8,1.,4.8,0.,4.8
1981-08-27 18:08:57.470 ,0,0,0.,4.8,0.,4.8,0.,4.8,0.,4.8
1981-08-27 18:09:02.270 ,0,0,0.,4.8,0.,4.8,0.,4.8,0.,4.8
1981-08-27 18:09:07.070 ,0,0,0.,4.8,0.,4.8,0.,4.8,0.,4.8
1981-08-27 18:09:11.870 ,0,0,0.,4.8,0.,4.8,0.,4.8,0.,4.8
1981-08-27 18:09:16.670 ,0,0,1.,4.8,0.,4.8,0.,4.8,0.,4.8
1981-08-27 18:09:21.470 ,0,0,1.,4.8,0.,4.8,0.,4.8,0.,4.8
1981-08-27 18:09:26.270 ,0,0,0.,4.8,1.,4.8,0.,4.8,0.,4.8
1981-08-27 18:09:31.070 ,0,0,1.,4.8,0.,4.8,0.,4.8,0.,4.8
1981-08-27 18:09:35.870 ,0,0,0.,4.8,0.,4.8,0.,4.8,0.,4.8
1981-08-27 18:09:40.670 ,0,0,0.,4.8,0.,4.8,0.,4.8,0.,4.8
1981-08-27 18:09:45.470 ,0,0,0.,4.8,1.,4.8,0.,4.8,0.,4.8
1981-08-27 18:09:50.270 ,0,0,0.,4.8,0.,4.8,0.,4.8,0.,4.8
1981-08-27 18:09:55.070 ,0,0,0.,4.8,0.,4.8,0.,4.8,0.,4.8
1981-08-27 18:09:59.870 ,0,0,0.,4.8,0.,4.8,0.,4.8,0.,4.8
1981-08-27 18:10:04.670 ,0,0,0.,4.8,0.,4.8,0.,4.8,0.,4.8
1981-08-27 18:10:09.470 ,0,0,0.,4.8,0.,4.8,0.,4.8,0.,4.8
1981-08-27 18:10:14.270 ,0,0,0.,4.8,1.,4.8,0.,4.8,0.,4.8
1981-08-27 18:10:19.070 ,0,0,0.,4.8,0.,4.8,0.,4.8,0.,4.8
1981-08-27 18:10:23.870 ,1,0,1.,4.8,0.,4.8,0.,4.8,0.,4.8
1981-08-27 18:10:28.670 ,1,0,0.,4.8,0.,4.8,0.,4.8,0.,4.8
1981-08-27 18:10:33.470 ,1,0,2.,4.8,0.,4.8,0.,4.8,0.,4.8
1981-08-27 18:10:38.270 ,1,0,0.,4.8,0.,4.8,0.,4.8,0.,4.8
1981-08-27 18:10:43.070 ,1,0,1.,4.8,0.,4.8,0.,4.8,0.,4.8
1981-08-27 18:10:47.870 ,1,0,0.,4.8,0.,4.8,1.,4.8,0.,4.8
1981-08-27 18:10:52.670 ,1,0,0.,4.8,0.,4.8,0.,4.8,0.,4.8
1981-08-27 18:10:57.470 ,1,0,0.,4.8,0.,4.8,0.,4.8,0.,4.8
1981-08-27 18:11:02.270 ,1,0,0.,4.8,0.,4.8,0.,4.8,0.,4.8
1981-08-27 18:11:07.070 ,1,0,0.,4.8,1.,4.8,0.,4.8,0.,4.8
1981-08-27 18:11:11.870 ,2,0,1.,4.8,0.,4.8,0.,4.8,0.,4.8
1981-08-27 18:11:16.670 ,2,0,0.,4.8,0.,4.8,0.,4.8,0.,4.8
1981-08-27 18:11:21.470 ,2,0,1.,4.8,0.,4.8,0.,4.8,0.,4.8
1981-08-27 18:11:26.270 ,2,0,0.,4.8,0.,4.8,0.,4.8,0.,4.8
1981-08-27 18:11:31.070 ,2,0,0.,4.8,0.,4.8,0.,4.8,0.,4.8
1981-08-27 18:11:35.870 ,2,0,0.,4.8,0.,4.8,0.,4.8,0.,4.8
1981-08-27 18:11:40.670 ,2,0,1.,4.8,0.,4.8,0.,4.8,0.,4.8
1981-08-27 18:11:45.470 ,2,0,0.,4.8,0.,4.8,0.,4.8,0.,4.8
1981-08-27 18:11:50.270 ,2,0,0.,4.8,0.,4.8,0.,4.8,0.,4.8
1981-08-27 18:11:55.070 ,2,0,0.,4.8,0.,4.8,0.,4.8,0.,4.8
1981-08-27 18:11:59.870 ,3,0,0.,4.8,0.,4.8,0.,4.8,0.,4.8
1981-08-27 18:12:04.670 ,3,0,0.,4.8,0.,4.8,0.,4.8,0.,4.8
1981-08-27 18:12:09.470 ,3,0,0.,4.8,0.,4.8,0.,4.8,0.,4.8
1981-08-27 18:12:14.270 ,3,0,0.,4.8,0.,4.8,0.,4.8,0.,4.8
1981-08-27 18:12:19.070 ,3,0,0.,4.8,0.,4.8,0.,4.8,0.,4.8
1981-08-27 18:12:23.870 ,3,0,1.,4.8,0.,4.8,0.,4.8,0.,4.8
1981-08-27 18:12:28.670 ,3,0,0.,4.8,0.,4.8,0.,4.8,0.,4.8
1981-08-27 18:12:33.470 ,3,0,1.,4.8,0.,4.8,0.,4.8,0.,4.8
1981-08-27 18:12:38.270 ,3,0,1.,4.8,0.,4.8,0.,4.8,0.,4.8
1981-08-27 18:12:43.070 ,3,0,0.,4.8,0.,4.8,0.,4.8,0.,4.8
1981-08-27 18:12:47.870 ,4,0,1.,4.8,0.,4.8,0.,4.8,0.,4.8
1981-08-27 18:12:52.670 ,4,0,0.,4.8,0.,4.8,1.,4.8,0.,4.8
1981-08-27 18:12:57.470 ,4,0,0.,4.8,0.,4.8,1.,4.8,0.,4.8
1981-08-27 18:13:02.270 ,4,0,1.,4.8,0.,4.8,0.,4.8,0.,4.8
1981-08-27 18:13:07.070 ,4,0,0.,4.8,0.,4.8,1.,4.8,0.,4.8
1981-08-27 18:13:11.870 ,4,0,0.,4.8,0.,4.8,0.,4.8,0.,4.8
1981-08-27 18:13:16.670 ,4,0,0.,4.8,0.,4.8,0.,4.8,0.,4.8
1981-08-27 18:13:21.470 ,4,0,0.,4.8,1.,4.8,0.,4.8,0.,4.8
1981-08-27 18:13:26.270 ,4,0,1.,4.8,0.,4.8,0.,4.8,0.,4.8
1981-08-27 18:13:31.070 ,4,0,0.,4.8,0.,4.8,0.,4.8,0.,4.8
1981-08-27 18:13:35.870 ,5,0,0.,4.8,0.,4.8,0.,4.8,0.,4.8
1981-08-27 18:13:40.670 ,5,0,0.,4.8,0.,4.8,0.,4.8,0.,4.8
1981-08-27 18:13:45.470 ,5,0,0.,4.8,0.,4.8,1.,4.8,0.,4.8
1981-08-27 18:13:50.270 ,5,0,0.,4.8,0.,4.8,0.,4.8,0.,4.8
1981-08-27 18:13:55.070 ,5,0,0.,4.8,0.,4.8,0.,4.8,0.,4.8
1981-08-27 18:13:59.870 ,5,0,1.,4.8,0.,4.8,0.,4.8,0.,4.8
1981-08-27 18:14:04.670 ,5,0,1.,4.8,0.,4.8,0.,4.8,0.,4.8
1981-08-27 18:14:09.470 ,5,0,0.,4.8,0.,4.8,0.,4.8,0.,4.8
1981-08-27 18:14:14.270 ,5,0,0.,4.8,0.,4.8,0.,4.8,0.,4.8
1981-08-27 18:14:19.070 ,5,0,0.,4.8,1.,4.8,0.,4.8,0.,4.8
1981-08-27 18:14:23.870 ,6,0,1.,4.8,0.,4.8,0.,4.8,0.,4.8
1981-08-27 18:14:28.670 ,6,0,1.,4.8,0.,4.8,0.,4.8,0.,4.8
1981-08-27 18:14:33.470 ,6,0,0.,4.8,0.,4.8,0.,4.8,0.,4.8
1981-08-27 18:14:38.270 ,6,0,1.,4.8,0.,4.8,0.,4.8,0.,4.8
1981-08-27 18:14:43.070 ,6,0,0.,4.8,0.,4.8,0.,4.8,0.,4.8
1981-08-27 18:14:47.870 ,6,0,0.,4.8,0.,4.8,0.,4.8,0.,4.8
1981-08-27 18:14:52.670 ,6,0,0.,4.8,0.,4.8,0.,4.8,0.,4.8
1981-08-27 18:14:57.470 ,6,0,0.,4.8,0.,4.8,0.,4.8,0.,4.8
1981-08-27 18:15:02.270 ,6,0,0.,4.8,0.,4.8,0.,4.8,0.,4.8
1981-08-27 18:15:07.070 ,6,0,0.,4.8,0.,4.8,0.,4.8,0.,4.8
1981-08-27 18:15:11.870 ,7,0,0.,4.8,0.,4.8,0.,4.8,0.,4.8
1981-08-27 18:15:16.670 ,7,0,0.,4.8,0.,4.8,0.,4.8,0.,4.8
1981-08-27 18:15:21.470 ,7,0,0.,4.8,0.,4.8,0.,4.8,0.,4.8
1981-08-27 18:15:26.270 ,7,0,0.,4.8,0.,4.8,0.,4.8,0.,4.8
1981-08-27 18:15:31.070 ,7,0,0.,4.8,0.,4.8,0.,4.8,0.,4.8
1981-08-27 18:15:35.870 ,7,0,0.,4.8,0.,4.8,0.,4.8,0.,4.8
1981-08-27 18:15:40.670 ,7,0,0.,4.8,0.,4.8,0.,4.8,0.,4.8
1981-08-27 18:15:45.470 ,7,0,0.,4.8,0.,4.8,1.,4.8,0.,4.8
1981-08-27 18:15:50.270 ,7,0,1.,4.8,0.,4.8,0.,4.8,0.,4.8
1981-08-27 18:15:55.070 ,7,0,1.,4.8,0.,4.8,0.,4.8,0.,4.8
1981-08-27 18:15:59.870 ,7,0,0.,4.8,0.,4.8,0.,4.8,0.,4.8
1981-08-27 18:16:04.670 ,7,0,0.,4.8,0.,4.8,0.,4.8,0.,4.8
1981-08-27 18:16:09.470 ,7,0,1.,4.8,0.,4.8,0.,4.8,0.,4.8
1981-08-27 18:16:14.270 ,7,0,1.,4.8,0.,4.8,0.,4.8,0.,4.8
1981-08-27 18:16:19.070 ,7,0,1.,4.8,0.,4.8,0.,4.8,0.,4.8
1981-08-27 18:16:23.870 ,6,0,1.,4.8,0.,4.8,0.,4.8,0.,4.8
1981-08-27 18:16:28.670 ,6,0,0.,4.8,0.,4.8,0.,4.8,0.,4.8
1981-08-27 18:16:33.470 ,6,0,0.,4.8,0.,4.8,0.,4.8,0.,4.8
1981-08-27 18:16:38.270 ,6,0,0.,4.8,0.,4.8,0.,4.8,0.,4.8
1981-08-27 18:16:43.070 ,6,0,1.,4.8,0.,4.8,0.,4.8,0.,4.8
1981-08-27 18:16:47.870 ,5,0,0.,4.8,0.,4.8,0.,4.8,0.,4.8
1981-08-27 18:16:52.670 ,5,0,0.,4.8,0.,4.8,1.,4.8,0.,4.8
1981-08-27 18:16:57.470 ,5,0,1.,4.8,0.,4.8,0.,4.8,0.,4.8
1981-08-27 18:17:02.270 ,5,0,0.,4.8,0.,4.8,2.,4.8,0.,4.8
1981-08-27 18:17:07.070 ,5,0,0.,4.8,0.,4.8,0.,4.8,0.,4.8
1981-08-27 18:17:11.870 ,4,0,1.,4.8,0.,4.8,0.,4.8,0.,4.8
1981-08-27 18:17:16.670 ,4,0,1.,4.8,0.,4.8,0.,4.8,0.,4.8
1981-08-27 18:17:21.470 ,4,0,0.,4.8,0.,4.8,0.,4.8,0.,4.8
1981-08-27 18:17:26.270 ,4,0,0.,4.8,0.,4.8,0.,4.8,0.,4.8
1981-08-27 18:17:31.070 ,4,0,0.,4.8,0.,4.8,0.,4.8,0.,4.8
1981-08-27 18:17:35.870 ,3,0,1.,4.8,0.,4.8,0.,4.8,0.,4.8
1981-08-27 18:17:40.670 ,3,0,1.,4.8,0.,4.8,1.,4.8,0.,4.8
1981-08-27 18:17:45.470 ,3,0,2.,4.8,0.,4.8,0.,4.8,0.,4.8
1981-08-27 18:17:50.270 ,3,0,1.,4.8,0.,4.8,0.,4.8,0.,4.8
1981-08-27 18:17:55.070 ,3,0,0.,4.8,0.,4.8,0.,4.8,0.,4.8
1981-08-27 18:17:59.870 ,2,0,0.,4.8,1.,4.8,0.,4.8,0.,4.8
1981-08-27 18:18:04.670 ,2,0,0.,4.8,0.,4.8,1.,4.8,0.,4.8
1981-08-27 18:18:09.470 ,2,0,1.,4.8,0.,4.8,0.,4.8,0.,4.8
1981-08-27 18:18:14.270 ,2,0,0.,4.8,0.,4.8,0.,4.8,0.,4.8
1981-08-27 18:18:19.070 ,2,0,0.,4.8,0.,4.8,0.,4.8,0.,4.8
1981-08-27 18:18:23.870 ,1,0,1.,4.8,0.,4.8,0.,4.8,0.,4.8
1981-08-27 18:18:28.670 ,1,0,0.,4.8,0.,4.8,0.,4.8,0.,4.8
1981-08-27 18:18:33.470 ,1,0,0.,4.8,0.,4.8,0.,4.8,0.,4.8
1981-08-27 18:18:38.270 ,1,0,1.,4.8,0.,4.8,0.,4.8,0.,4.8
1981-08-27 18:18:43.070 ,1,0,0.,4.8,0.,4.8,0.,4.8,0.,4.8
1981-08-27 18:18:47.870 ,0,0,0.,4.8,0.,4.8,0.,4.8,0.,4.8
1981-08-27 18:18:52.670 ,0,0,0.,4.8,0.,4.8,0.,4.8,0.,4.8
1981-08-27 18:18:57.470 ,0,0,0.,4.8,0.,4.8,0.,4.8,0.,4.8
1981-08-27 18:19:02.270 ,0,0,0.,4.8,0.,4.8,0.,4.8,0.,4.8
1981-08-27 18:19:07.070 ,0,0,0.,4.8,0.,4.8,0.,4.8,0.,4.8
1981-08-27 18:19:11.870 ,0,0,1.,4.8,0.,4.8,0.,4.8,0.,4.8
1981-08-27 18:19:16.670 ,0,0,1.,4.8,0.,4.8,0.,4.8,0.,4.8
1981-08-27 18:19:21.470 ,0,0,0.,4.8,0.,4.8,0.,4.8,0.,4.8
1981-08-27 18:19:26.270 ,0,0,0.,4.8,0.,4.8,0.,4.8,0.,4.8
1981-08-27 18:19:31.070 ,0,0,0.,4.8,0.,4.8,0.,4.8,0.,4.8
1981-08-27 18:19:35.870 ,1,0,0.,4.8,0.,4.8,0.,4.8,0.,4.8
1981-08-27 18:19:40.670 ,1,0,1.,4.8,0.,4.8,0.,4.8,0.,4.8
1981-08-27 18:19:45.470 ,1,0,2.,4.8,0.,4.8,0.,4.8,0.,4.8
1981-08-27 18:19:50.270 ,1,0,0.,4.8,0.,4.8,0.,4.8,0.,4.8
1981-08-27 18:19:55.070 ,1,0,0.,4.8,1.,4.8,0.,4.8,0.,4.8
1981-08-27 18:19:59.870 ,2,0,0.,4.8,0.,4.8,0.,4.8,0.,4.8
1981-08-27 18:20:04.670 ,2,0,0.,4.8,0.,4.8,0.,4.8,0.,4.8
1981-08-27 18:20:09.470 ,2,0,0.,4.8,0.,4.8,0.,4.8,0.,4.8
1981-08-27 18:20:14.270 ,2,0,2.,4.8,0.,4.8,0.,4.8,0.,4.8
1981-08-27 18:20:19.070 ,2,0,0.,4.8,0.,4.8,0.,4.8,0.,4.8
1981-08-27 18:20:23.870 ,3,0,0.,4.8,0.,4.8,0.,4.8,0.,4.8
1981-08-27 18:20:28.670 ,3,0,0.,4.8,0.,4.8,0.,4.8,0.,4.8
1981-08-27 18:20:33.470 ,3,0,0.,4.8,0.,4.8,0.,4.8,0.,4.8
1981-08-27 18:20:38.270 ,3,0,2.,4.8,0.,4.8,0.,4.8,0.,4.8
1981-08-27 18:20:43.070 ,3,0,0.,4.8,0.,4.8,0.,4.8,0.,4.8
1981-08-27 18:20:47.870 ,4,0,0.,4.8,0.,4.8,0.,4.8,0.,4.8
1981-08-27 18:20:52.670 ,4,0,0.,4.8,0.,4.8,0.,4.8,0.,4.8
1981-08-27 18:20:57.470 ,4,0,1.,4.8,1.,4.8,0.,4.8,0.,4.8
1981-08-27 18:21:02.270 ,4,0,0.,4.8,0.,4.8,0.,4.8,0.,4.8
1981-08-27 18:21:07.070 ,4,0,0.,4.8,0.,4.8,0.,4.8,0.,4.8
1981-08-27 18:21:11.870 ,5,0,0.,4.8,0.,4.8,0.,4.8,0.,4.8
1981-08-27 18:21:16.670 ,5,0,0.,4.8,0.,4.8,0.,4.8,0.,4.8
1981-08-27 18:21:21.470 ,5,0,0.,4.8,0.,4.8,0.,4.8,0.,4.8
1981-08-27 18:21:26.270 ,5,0,0.,4.8,0.,4.8,1.,4.8,0.,4.8
1981-08-27 18:21:31.070 ,5,0,0.,4.8,0.,4.8,0.,4.8,0.,4.8
1981-08-27 18:21:35.870 ,6,0,1.,4.8,0.,4.8,0.,4.8,0.,4.8
1981-08-27 18:21:40.670 ,6,0,1.,4.8,0.,4.8,0.,4.8,0.,4.8
1981-08-27 18:21:45.470 ,6,0,1.,4.8,0.,4.8,0.,4.8,0.,4.8
1981-08-27 18:21:50.270 ,6,0,0.,4.8,0.,4.8,0.,4.8,0.,4.8
1981-08-27 18:21:55.070 ,6,0,0.,4.8,0.,4.8,0.,4.8,0.,4.8
1981-08-27 18:21:59.870 ,7,0,0.,4.8,0.,4.8,0.,4.8,0.,4.8
1981-08-27 18:22:04.670 ,7,0,0.,4.8,1.,4.8,0.,4.8,0.,4.8
1981-08-27 18:22:09.470 ,7,0,2.,4.8,0.,4.8,0.,4.8,0.,4.8
1981-08-27 18:22:14.270 ,7,0,0.,4.8,0.,4.8,0.,4.8,0.,4.8
1981-08-27 18:22:19.070 ,7,0,0.,4.8,0.,4.8,0.,4.8,0.,4.8
1981-08-27 18:22:23.870 ,7,0,1.,4.8,0.,4.8,0.,4.8,0.,4.8
1981-08-27 18:22:28.670 ,7,0,0.,4.8,0.,4.8,0.,4.8,0.,4.8
1981-08-27 18:22:33.470 ,7,0,0.,4.8,0.,4.8,0.,4.8,0.,4.8
1981-08-27 18:22:38.270 ,7,0,0.,4.8,0.,4.8,0.,4.8,0.,4.8
1981-08-27 18:22:43.070 ,7,0,1.,4.8,0.,4.8,0.,4.8,0.,4.8
1981-08-27 18:22:47.870 ,7,0,0.,4.8,0.,4.8,0.,4.8,0.,4.8
1981-08-27 18:22:52.670 ,7,0,0.,4.8,0.,4.8,0.,4.8,0.,4.8
1981-08-27 18:22:57.470 ,7,0,0.,4.8,0.,4.8,1.,4.8,0.,4.8
1981-08-27 18:23:02.270 ,7,0,0.,4.8,0.,4.8,0.,4.8,0.,4.8
1981-08-27 18:23:07.070 ,7,0,0.,4.8,0.,4.8,1.,4.8,0.,4.8
1981-08-27 18:23:11.870 ,6,0,0.,4.8,0.,4.8,0.,4.8,0.,4.8
1981-08-27 18:23:16.670 ,6,0,3.,4.8,0.,4.8,0.,4.8,0.,4.8
1981-08-27 18:23:21.470 ,6,0,2.,4.8,0.,4.8,1.,4.8,0.,4.8
1981-08-27 18:23:26.270 ,6,0,2.,4.8,0.,4.8,0.,4.8,0.,4.8
1981-08-27 18:23:31.070 ,6,0,0.,4.8,0.,4.8,0.,4.8,0.,4.8
1981-08-27 18:23:35.870 ,6,0,1.,4.8,0.,4.8,0.,4.8,0.,4.8
1981-08-27 18:23:40.670 ,6,0,2.,4.8,0.,4.8,0.,4.8,0.,4.8
1981-08-27 18:23:45.470 ,6,0,0.,4.8,0.,4.8,0.,4.8,1.,4.8
1981-08-27 18:23:50.270 ,6,0,0.,4.8,0.,4.8,0.,4.8,0.,4.8
1981-08-27 18:23:55.070 ,6,0,2.,4.8,0.,4.8,0.,4.8,0.,4.8
1981-08-27 18:23:59.870 ,5,0,0.,4.8,0.,4.8,0.,4.8,0.,4.8
1981-08-27 18:24:04.670 ,5,0,2.,4.8,0.,4.8,0.,4.8,0.,4.8
1981-08-27 18:24:09.470 ,5,0,2.,4.8,0.,4.8,0.,4.8,0.,4.8
1981-08-27 18:24:14.270 ,5,0,1.,4.8,0.,4.8,0.,4.8,0.,4.8
1981-08-27 18:24:19.070 ,5,0,0.,4.8,0.,4.8,0.,4.8,0.,4.8
1981-08-27 18:24:23.870 ,5,0,0.,4.8,0.,4.8,0.,4.8,0.,4.8
1981-08-27 18:24:28.670 ,5,0,0.,4.8,0.,4.8,0.,4.8,0.,4.8
1981-08-27 18:24:33.470 ,5,0,0.,4.8,0.,4.8,0.,4.8,0.,4.8
1981-08-27 18:24:38.270 ,5,0,1.,4.8,0.,4.8,0.,4.8,0.,4.8
1981-08-27 18:24:43.070 ,5,0,0.,4.8,0.,4.8,0.,4.8,0.,4.8
1981-08-27 18:24:47.870 ,4,0,0.,4.8,0.,4.8,0.,4.8,0.,4.8
1981-08-27 18:24:52.670 ,4,0,0.,4.8,0.,4.8,0.,4.8,0.,4.8
1981-08-27 18:24:57.470 ,4,0,1.,4.8,0.,4.8,0.,4.8,0.,4.8
1981-08-27 18:25:02.270 ,4,0,1.,4.8,0.,4.8,0.,4.8,0.,4.8
1981-08-27 18:25:07.070 ,4,0,0.,4.8,0.,4.8,0.,4.8,0.,4.8
1981-08-27 18:25:11.870 ,4,0,2.,4.8,0.,4.8,0.,4.8,0.,4.8
1981-08-27 18:25:16.670 ,4,0,1.,4.8,0.,4.8,0.,4.8,0.,4.8
1981-08-27 18:25:21.470 ,4,0,0.,4.8,0.,4.8,0.,4.8,0.,4.8
1981-08-27 18:25:26.270 ,4,0,1.,4.8,0.,4.8,0.,4.8,0.,4.8
1981-08-27 18:25:31.070 ,4,0,0.,4.8,0.,4.8,0.,4.8,0.,4.8
1981-08-27 18:25:35.870 ,3,0,0.,4.8,0.,4.8,0.,4.8,0.,4.8
1981-08-27 18:25:40.670 ,3,0,0.,4.8,2.,4.8,0.,4.8,0.,4.8
1981-08-27 18:25:45.470 ,3,0,0.,4.8,0.,4.8,0.,4.8,0.,4.8
1981-08-27 18:25:50.270 ,3,0,1.,4.8,0.,4.8,0.,4.8,0.,4.8
1981-08-27 18:25:55.070 ,3,0,2.,4.8,0.,4.8,1.,4.8,0.,4.8
1981-08-27 18:25:59.870 ,3,0,2.,4.8,0.,4.8,0.,4.8,0.,4.8
1981-08-27 18:26:04.670 ,3,0,0.,4.8,0.,4.8,0.,4.8,0.,4.8
1981-08-27 18:26:09.470 ,3,0,3.,4.8,0.,4.8,0.,4.8,0.,4.8
1981-08-27 18:26:14.270 ,3,0,1.,4.8,0.,4.8,1.,4.8,0.,4.8
1981-08-27 18:26:19.070 ,3,0,0.,4.8,0.,4.8,0.,4.8,0.,4.8
1981-08-27 18:26:23.870 ,2,0,2.,4.8,0.,4.8,0.,4.8,0.,4.8
1981-08-27 18:26:28.670 ,2,0,0.,4.8,0.,4.8,0.,4.8,0.,4.8
1981-08-27 18:26:33.470 ,2,0,0.,4.8,0.,4.8,0.,4.8,0.,4.8
1981-08-27 18:26:38.270 ,2,0,0.,4.8,0.,4.8,0.,4.8,0.,4.8
1981-08-27 18:26:43.070 ,2,0,0.,4.8,0.,4.8,0.,4.8,0.,4.8
1981-08-27 18:26:47.870 ,2,0,0.,4.8,0.,4.8,1.,4.8,0.,4.8
1981-08-27 18:26:52.670 ,2,0,1.,4.8,0.,4.8,0.,4.8,0.,4.8
1981-08-27 18:26:57.470 ,2,0,0.,4.8,0.,4.8,0.,4.8,0.,4.8
1981-08-27 18:27:02.270 ,2,0,0.,4.8,0.,4.8,0.,4.8,0.,4.8
1981-08-27 18:27:07.070 ,2,0,0.,4.8,0.,4.8,0.,4.8,0.,4.8
1981-08-27 18:27:11.870 ,1,0,2.,4.8,0.,4.8,0.,4.8,0.,4.8
1981-08-27 18:27:16.670 ,1,0,0.,4.8,0.,4.8,0.,4.8,0.,4.8
1981-08-27 18:27:21.470 ,1,0,0.,4.8,0.,4.8,0.,4.8,0.,4.8
1981-08-27 18:27:26.270 ,1,0,0.,4.8,0.,4.8,1.,4.8,0.,4.8
1981-08-27 18:27:31.070 ,1,0,1.,4.8,0.,4.8,0.,4.8,0.,4.8
1981-08-27 18:27:35.870 ,1,0,2.,4.8,0.,4.8,0.,4.8,0.,4.8
1981-08-27 18:27:40.670 ,1,0,0.,4.8,0.,4.8,0.,4.8,0.,4.8
1981-08-27 18:27:45.470 ,1,0,0.,4.8,0.,4.8,0.,4.8,0.,4.8
1981-08-27 18:27:50.270 ,1,0,1.,4.8,0.,4.8,0.,4.8,0.,4.8
1981-08-27 18:27:55.070 ,1,0,0.,4.8,0.,4.8,0.,4.8,0.,4.8
1981-08-27 18:27:59.870 ,0,0,0.,4.8,0.,4.8,0.,4.8,0.,4.8
1981-08-27 18:28:04.670 ,0,0,0.,4.8,0.,4.8,0.,4.8,0.,4.8
1981-08-27 18:28:09.470 ,0,0,0.,4.8,0.,4.8,0.,4.8,0.,4.8
1981-08-27 18:28:14.270 ,0,0,2.,4.8,0.,4.8,0.,4.8,0.,4.8
1981-08-27 18:28:19.070 ,0,0,1.,4.8,0.,4.8,0.,4.8,0.,4.8
1981-08-27 18:28:23.870 ,0,0,2.,4.8,0.,4.8,0.,4.8,0.,4.8
1981-08-27 18:28:28.670 ,0,0,1.,4.8,0.,4.8,0.,4.8,0.,4.8
1981-08-27 18:28:33.470 ,0,0,0.,4.8,0.,4.8,0.,4.8,0.,4.8
1981-08-27 18:28:38.270 ,0,0,0.,4.8,0.,4.8,0.,4.8,0.,4.8
1981-08-27 18:28:43.070 ,0,0,1.,4.8,0.,4.8,0.,4.8,0.,4.8
1981-08-27 18:28:47.870 ,0,0,0.,4.8,0.,4.8,0.,4.8,0.,4.8
1981-08-27 18:28:52.670 ,0,0,0.,4.8,0.,4.8,0.,4.8,0.,4.8
1981-08-27 18:28:57.470 ,0,0,0.,4.8,0.,4.8,0.,4.8,0.,4.8
1981-08-27 18:29:02.270 ,0,0,0.,4.8,1.,4.8,0.,4.8,0.,4.8
1981-08-27 18:29:07.070 ,0,0,0.,4.8,0.,4.8,0.,4.8,0.,4.8
1981-08-27 18:29:11.870 ,0,0,0.,4.8,0.,4.8,0.,4.8,0.,4.8
1981-08-27 18:29:16.670 ,0,0,0.,4.8,0.,4.8,0.,4.8,0.,4.8
1981-08-27 18:29:21.470 ,0,0,0.,4.8,0.,4.8,0.,4.8,0.,4.8
1981-08-27 18:29:26.270 ,0,0,0.,4.8,0.,4.8,0.,4.8,0.,4.8
1981-08-27 18:29:31.070 ,0,0,0.,4.8,0.,4.8,0.,4.8,0.,4.8
1981-08-27 18:29:35.870 ,1,0,0.,4.8,0.,4.8,0.,4.8,0.,4.8
1981-08-27 18:29:40.670 ,1,0,0.,4.8,0.,4.8,1.,4.8,0.,4.8
1981-08-27 18:29:45.470 ,1,0,1.,4.8,0.,4.8,0.,4.8,0.,4.8
1981-08-27 18:29:50.270 ,1,0,0.,4.8,0.,4.8,0.,4.8,0.,4.8
1981-08-27 18:29:55.070 ,1,0,1.,4.8,0.,4.8,0.,4.8,0.,4.8
1981-08-27 18:29:59.870 ,1,0,0.,4.8,0.,4.8,0.,4.8,0.,4.8
1981-08-27 18:30:04.670 ,1,0,0.,4.8,0.,4.8,0.,4.8,0.,4.8
1981-08-27 18:30:09.470 ,1,0,0.,4.8,0.,4.8,1.,4.8,0.,4.8
1981-08-27 18:30:14.270 ,1,0,0.,4.8,0.,4.8,0.,4.8,0.,4.8
1981-08-27 18:30:19.070 ,1,0,0.,4.8,0.,4.8,0.,4.8,0.,4.8
1981-08-27 18:30:23.870 ,2,0,1.,4.8,0.,4.8,0.,4.8,0.,4.8
1981-08-27 18:30:28.670 ,2,0,0.,4.8,0.,4.8,0.,4.8,0.,4.8
1981-08-27 18:30:33.470 ,2,0,0.,4.8,0.,4.8,0.,4.8,0.,4.8
1981-08-27 18:30:38.270 ,2,0,0.,4.8,0.,4.8,0.,4.8,0.,4.8
1981-08-27 18:30:43.070 ,2,0,0.,4.8,0.,4.8,0.,4.8,0.,4.8
1981-08-27 18:30:47.870 ,2,0,0.,4.8,0.,4.8,0.,4.8,0.,4.8
1981-08-27 18:30:52.670 ,2,0,0.,4.8,0.,4.8,0.,4.8,0.,4.8
1981-08-27 18:30:57.470 ,2,0,1.,4.8,0.,4.8,0.,4.8,0.,4.8
1981-08-27 18:31:02.270 ,2,0,0.,4.8,0.,4.8,0.,4.8,0.,4.8
1981-08-27 18:31:07.070 ,2,0,0.,4.8,0.,4.8,0.,4.8,0.,4.8
1981-08-27 18:31:11.870 ,3,0,0.,4.8,0.,4.8,1.,4.8,0.,4.8
1981-08-27 18:31:16.670 ,3,0,0.,4.8,0.,4.8,0.,4.8,0.,4.8
1981-08-27 18:31:21.470 ,3,0,0.,4.8,0.,4.8,0.,4.8,0.,4.8
1981-08-27 18:31:26.270 ,3,0,0.,4.8,0.,4.8,0.,4.8,0.,4.8
1981-08-27 18:31:31.070 ,3,0,0.,4.8,1.,4.8,0.,4.8,0.,4.8
1981-08-27 18:31:35.870 ,3,0,0.,4.8,0.,4.8,0.,4.8,0.,4.8
1981-08-27 18:31:40.670 ,3,0,0.,4.8,0.,4.8,0.,4.8,0.,4.8
1981-08-27 18:31:45.470 ,3,0,0.,4.8,0.,4.8,0.,4.8,0.,4.8
1981-08-27 18:31:50.270 ,3,0,1.,4.8,0.,4.8,0.,4.8,0.,4.8
1981-08-27 18:31:55.070 ,3,0,0.,4.8,0.,4.8,0.,4.8,0.,4.8
1981-08-27 18:31:59.870 ,4,0,2.,4.8,0.,4.8,0.,4.8,0.,4.8
1981-08-27 18:32:04.670 ,4,0,0.,4.8,0.,4.8,0.,4.8,0.,4.8
1981-08-27 18:32:09.470 ,4,0,0.,4.8,0.,4.8,0.,4.8,0.,4.8
1981-08-27 18:32:14.270 ,4,0,1.,4.8,0.,4.8,0.,4.8,0.,4.8
1981-08-27 18:32:19.070 ,4,0,0.,4.8,0.,4.8,0.,4.8,0.,4.8
1981-08-27 18:32:23.870 ,4,0,1.,4.8,0.,4.8,0.,4.8,0.,4.8
1981-08-27 18:32:28.670 ,4,0,2.,4.8,0.,4.8,0.,4.8,0.,4.8
1981-08-27 18:32:33.470 ,4,0,0.,4.8,0.,4.8,0.,4.8,0.,4.8
1981-08-27 18:32:38.270 ,4,0,1.,4.8,0.,4.8,0.,4.8,0.,4.8
1981-08-27 18:32:43.070 ,4,0,0.,4.8,0.,4.8,0.,4.8,0.,4.8
1981-08-27 18:32:47.870 ,5,0,0.,4.8,0.,4.8,0.,4.8,0.,4.8
1981-08-27 18:32:52.670 ,5,0,1.,4.8,0.,4.8,0.,4.8,0.,4.8
1981-08-27 18:32:57.470 ,5,0,1.,4.8,0.,4.8,1.,4.8,0.,4.8
1981-08-27 18:33:02.270 ,5,0,0.,4.8,0.,4.8,0.,4.8,0.,4.8
1981-08-27 18:33:07.070 ,5,0,0.,4.8,0.,4.8,1.,4.8,0.,4.8
1981-08-27 18:33:11.870 ,5,0,1.,4.8,0.,4.8,0.,4.8,0.,4.8
1981-08-27 18:33:16.670 ,5,0,0.,4.8,0.,4.8,0.,4.8,0.,4.8